| time (UTC) | temp F | wind direction | speed knots | gust knots | rain 1hr in | rain 24hr in | rain mn in | humidity % | barometer mb |
| 20260506134600 | 57 | 216 | 2.6 | 7.8 | 0.00 | 0.49 | 0.22 | 77 | 1015.5 |
| 20260506134501 | 57 | 236 | 3.5 | 7.8 | 0.00 | 0.49 | 0.22 | 77 | 1020.0 |
| 20260506134100 | 57 | 226 | 3.5 | 7.8 | 0.00 | 0.49 | 0.22 | 79 | 1015.4 |
| 20260506134001 | 57 | 159 | 3.5 | 7.8 | 0.00 | 0.49 | 0.22 | 78 | 1020.0 |
| 20260506133600 | 57 | 238 | 3.5 | 6.1 | 0.00 | 0.49 | 0.22 | 80 | 1015.4 |
| 20260506133500 | 57 | 297 | 2.6 | 6.1 | 0.00 | 0.49 | 0.22 | 80 | 1020.0 |
| 20260506133103 | 57 | 303 | 1.7 | 6.1 | 0.00 | 0.49 | 0.22 | 81 | 1015.4 |
| 20260506133002 | 57 | 280 | 2.6 | 6.1 | 0.00 | 0.49 | 0.22 | 81 | 1020.0 |
| 20260506132600 | 57 | 257 | 3.5 | 6.1 | 0.00 | 0.49 | 0.22 | 81 | 1015.4 |
| 20260506132502 | 57 | 269 | 2.6 | 6.1 | 0.00 | 0.49 | 0.22 | 81 | 1020.0 |
| 20260506132100 | 57 | 227 | 2.6 | 7.8 | 0.00 | 0.49 | 0.22 | 81 | 1015.4 |
| 20260506132001 | 57 | 257 | 2.6 | 7.8 | 0.00 | 0.49 | 0.22 | 81 | 1019.9 |
| 20260506131603 | 57 | 260 | 1.7 | 7.8 | 0.00 | 0.49 | 0.22 | 82 | 1015.4 |
| 20260506131501 | 57 | 257 | 3.5 | 7.8 | 0.00 | 0.49 | 0.22 | 82 | 1019.9 |
| 20260506131104 | 57 | 217 | 2.6 | 7.8 | 0.00 | 0.49 | 0.22 | 83 | 1015.4 |
| 20260506131000 | 57 | 269 | 3.5 | 7.8 | 0.00 | 0.49 | 0.22 | 84 | 1019.9 |
| 20260506130601 | 57 | 290 | 2.6 | 7.8 | 0.00 | 0.49 | 0.22 | 83 | 1015.3 |
| 20260506130502 | 57 | 241 | 3.5 | 7.8 | 0.00 | 0.49 | 0.22 | 83 | 1019.9 |
| 20260506130007 | 57 | 267 | 3.5 | 9.6 | 0.00 | 0.49 | 0.22 | 83 | 1015.3 |
| 20260506130005 | 57 | 267 | 4.3 | 9.6 | 0.00 | 0.49 | 0.22 | 83 | 1019.9 |
| 20260506125559 | 57 | 266 | 4.3 | 9.6 | 0.00 | 0.56 | 0.22 | 83 | 1015.2 |
| 20260506125500 | 57 | 237 | 5.2 | 9.6 | 0.00 | 0.57 | 0.22 | 83 | 1019.8 |
| 20260506125100 | 57 | 245 | 3.5 | 9.6 | 0.00 | 0.56 | 0.22 | 82 | 1015.3 |
| 20260506124559 | 57 | 295 | 4.3 | 9.6 | 0.00 | 0.56 | 0.22 | 83 | 1015.2 |
| 20260506124502 | 57 | 195 | 4.3 | 9.6 | 0.00 | 0.57 | 0.22 | 84 | 1019.7 |
| 20260506124100 | 57 | 261 | 4.3 | 13.9 | 0.00 | 0.56 | 0.22 | 84 | 1015.1 |
| 20260506124001 | 57 | 252 | 6.1 | 13.9 | 0.00 | 0.57 | 0.22 | 84 | 1019.7 |
| 20260506123601 | 56 | 240 | 6.1 | 13.9 | 0.00 | 0.56 | 0.22 | 84 | 1015.3 |
| 20260506123501 | 56 | 269 | 7.0 | 13.9 | 0.00 | 0.57 | 0.22 | 84 | 1019.7 |
| 20260506123100 | 56 | 259 | 5.2 | 11.3 | 0.00 | 0.56 | 0.22 | 84 | 1015.2 |
| 20260506122601 | 56 | 241 | 4.3 | 11.3 | 0.00 | 0.56 | 0.22 | 84 | 1015.1 |
| 20260506122501 | 56 | 227 | 5.2 | 11.3 | 0.00 | 0.57 | 0.22 | 83 | 1019.8 |
| 20260506122100 | 57 | 282 | 5.2 | 9.6 | 0.00 | 0.56 | 0.22 | 83 | 1015.2 |
| 20260506122001 | 57 | 183 | 4.3 | 8.7 | 0.00 | 0.57 | 0.22 | 83 | 1019.8 |
| 20260506121600 | 57 | 247 | 4.3 | 9.6 | 0.00 | 0.56 | 0.22 | 82 | 1015.2 |
| 20260506121500 | 57 | 301 | 5.2 | 10.4 | 0.01 | 0.57 | 0.22 | 81 | 1019.7 |
| 20260506121100 | 57 | 271 | 4.3 | 10.4 | 0.02 | 0.56 | 0.22 | 81 | 1015.2 |
| 20260506121005 | 57 | 248 | 5.2 | 10.4 | 0.02 | 0.57 | 0.22 | 81 | 1019.7 |
| 20260506120600 | 57 | 253 | 4.3 | 10.4 | 0.02 | 0.56 | 0.22 | 81 | 1015.1 |
| 20260506120501 | 57 | 235 | 5.2 | 10.4 | 0.02 | 0.57 | 0.22 | 81 | 1019.7 |
| 20260506120100 | 57 | 223 | 4.3 | 12.2 | 0.02 | 0.56 | 0.22 | 82 | 1015.1 |
| 20260506120005 | 57 | 270 | 5.2 | 12.2 | 0.02 | 0.57 | 0.22 | 81 | 1019.7 |
| 20260506115502 | 58 | 243 | 4.3 | 11.3 | 0.02 | 0.56 | 0.22 | 81 | 1015.1 |
| 20260506115004 | 57 | 264 | 4.3 | 8.7 | 0.02 | 0.57 | 0.22 | 80 | 1019.6 |
| 20260506115000 | 57 | 264 | 3.5 | 8.7 | 0.02 | 0.56 | 0.22 | 80 | 1015.0 |
| 20260506114503 | 57 | 302 | 4.3 | 10.4 | 0.02 | 0.57 | 0.22 | 81 | 1019.6 |
| 20260506114003 | 57 | 234 | 4.3 | 10.4 | 0.02 | 0.56 | 0.22 | 81 | 1015.0 |
| 20260506113502 | 57 | 283 | 3.5 | 11.3 | 0.02 | 0.56 | 0.22 | 83 | 1015.0 |
| 20260506113002 | 57 | 293 | 6.1 | 11.3 | 0.02 | 0.57 | 0.22 | 83 | 1019.6 |
| 20260506112506 | 56 | 264 | 5.2 | 10.4 | 0.02 | 0.57 | 0.22 | 85 | 1019.6 |
| 20260506112504 | 56 | 269 | 4.3 | 10.4 | 0.02 | 0.56 | 0.22 | 85 | 1015.0 |
| 20260506112001 | 56 | 276 | 5.2 | 15.6 | 0.02 | 0.56 | 0.22 | 85 | 1015.0 |
| 20260506111501 | 57 | 268 | 7.8 | 15.6 | 0.00 | 0.56 | 0.20 | 81 | 1015.1 |
| 20260506111003 | 58 | 231 | 3.5 | 8.7 | 0.00 | 0.56 | 0.20 | 79 | 1015.0 |
| 20260506110501 | 58 | 241 | 2.6 | 7.0 | 0.00 | 0.56 | 0.20 | 79 | 1014.9 |
| 20260506110008 | 58 | 249 | 3.5 | 7.0 | 0.00 | 0.56 | 0.20 | 79 | 1014.9 |
| 20260506105502 | 58 | 223 | 4.3 | 10.4 | 0.00 | 0.56 | 0.20 | 78 | 1019.5 |
| 20260506105000 | 58 | 267 | 4.3 | 10.4 | 0.00 | 0.56 | 0.20 | 79 | 1014.9 |
| 20260506104504 | 58 | 259 | 4.3 | 8.7 | 0.00 | 0.56 | 0.20 | 78 | 1019.4 |
| 20260506104501 | 58 | 226 | 4.3 | 8.7 | 0.00 | 0.56 | 0.20 | 78 | 1014.8 |
| 20260506104002 | 58 | 281 | 4.3 | 11.3 | 0.00 | 0.56 | 0.20 | 78 | 1019.4 |
| 20260506103502 | 58 | 211 | 3.5 | 11.3 | 0.00 | 0.56 | 0.20 | 78 | 1019.4 |
| 20260506103005 | 58 | 259 | 4.3 | 12.2 | 0.00 | 0.56 | 0.20 | 81 | 1019.3 |
| 20260506103003 | 58 | 259 | 2.6 | 12.2 | 0.00 | 0.56 | 0.20 | 81 | 1014.8 |
| 20260506102502 | 57 | 299 | 3.5 | 12.2 | 0.00 | 0.56 | 0.20 | 81 | 1014.8 |
| 20260506102004 | 56 | 293 | 4.3 | 9.6 | 0.00 | 0.56 | 0.20 | 85 | 1019.4 |
| 20260506102002 | 56 | 293 | 3.5 | 9.6 | 0.00 | 0.56 | 0.20 | 85 | 1014.9 |
| 20260506101502 | 56 | 233 | 3.5 | 8.7 | 0.00 | 0.56 | 0.20 | 90 | 1014.8 |
| 20260506101003 | 55 | 288 | 2.6 | 7.8 | 0.00 | 0.56 | 0.20 | 92 | 1014.9 |
| 20260506100502 | 55 | 253 | 2.6 | 7.0 | 0.01 | 0.56 | 0.20 | 93 | 1019.4 |
| 20260506100008 | 55 | 288 | 1.7 | 7.0 | 0.02 | 0.56 | 0.20 | 93 | 1014.9 |
| 20260506100006 | 55 | 276 | 2.6 | 7.0 | 0.02 | 0.56 | 0.20 | 93 | 1019.4 |
| 20260506095502 | 54 | 149 | 2.6 | 7.0 | 0.02 | 0.56 | 0.20 | 94 | 1019.3 |
| 20260506095002 | 54 | 239 | 1.7 | 4.3 | 0.02 | 0.56 | 0.20 | 94 | 1019.4 |
| 20260506094505 | 54 | 221 | 1.7 | 7.0 | 0.03 | 0.56 | 0.20 | 94 | 1014.8 |
| 20260506094503 | 54 | 221 | 2.6 | 7.0 | 0.03 | 0.56 | 0.20 | 94 | 1019.3 |
| 20260506094002 | 54 | 221 | 3.5 | 7.0 | 0.04 | 0.56 | 0.20 | 93 | 1019.4 |
| 20260506093501 | 53 | 299 | 2.6 | 9.6 | 0.05 | 0.56 | 0.20 | 93 | 1014.8 |
| 20260506093002 | 53 | 228 | 4.3 | 9.6 | 0.05 | 0.56 | 0.20 | 93 | 1019.3 |
| 20260506092503 | 53 | 303 | 4.3 | 10.4 | 0.05 | 0.56 | 0.20 | 92 | 1019.4 |
| 20260506092004 | 53 | 307 | 4.3 | 11.3 | 0.05 | 0.56 | 0.20 | 92 | 1019.4 |
| 20260506092001 | 53 | 307 | 2.6 | 11.3 | 0.05 | 0.56 | 0.20 | 92 | 1014.8 |
| 20260506091502 | 53 | 248 | 6.1 | 11.3 | 0.06 | 0.56 | 0.20 | 90 | 1014.8 |
| 20260506091001 | 55 | 274 | 1.7 | 9.6 | 0.06 | 0.56 | 0.20 | 89 | 1014.8 |
| 20260506090503 | 56 | 216 | 2.6 | 9.6 | 0.06 | 0.55 | 0.20 | 82 | 1014.8 |
| 20260506090006 | 55 | 275 | 1.7 | 4.3 | 0.06 | 0.54 | 0.19 | 82 | 1014.6 |
| 20260506085501 | 55 | 296 | 1.7 | 5.2 | 0.07 | 0.55 | 0.18 | 82 | 1019.1 |
| 20260506085002 | 55 | 263 | 2.6 | 6.1 | 0.07 | 0.54 | 0.17 | 81 | 1019.1 |
| 20260506084502 | 55 | 304 | 2.6 | 6.1 | 0.06 | 0.54 | 0.17 | 82 | 1014.6 |
| 20260506084004 | 55 | 288 | 1.7 | 4.3 | 0.06 | 0.54 | 0.17 | 81 | 1019.1 |
| 20260506084002 | 55 | 288 | 1.7 | 4.3 | 0.06 | 0.54 | 0.17 | 81 | 1014.5 |
| 20260506083502 | 55 | 266 | 1.7 | 7.0 | 0.06 | 0.53 | 0.16 | 82 | 1014.5 |
| 20260506083003 | 55 | 264 | 3.5 | 8.7 | 0.06 | 0.53 | 0.16 | 81 | 1019.0 |
| 20260506083001 | 55 | 264 | 2.6 | 8.7 | 0.06 | 0.53 | 0.16 | 81 | 1014.5 |
| 20260506082502 | 55 | 249 | 4.3 | 9.6 | 0.06 | 0.53 | 0.16 | 81 | 1019.0 |
| 20260506082003 | 55 | 287 | 4.3 | 9.6 | 0.05 | 0.52 | 0.15 | 81 | 1019.0 |
| 20260506082001 | 55 | 287 | 5.2 | 9.6 | 0.05 | 0.52 | 0.15 | 81 | 1014.5 |
| 20260506081502 | 55 | 288 | 4.3 | 8.7 | 0.05 | 0.52 | 0.15 | 82 | 1019.0 |
| 20260506081005 | 55 | 297 | 2.6 | 8.7 | 0.05 | 0.52 | 0.15 | 81 | 1018.9 |
| 20260506081001 | 55 | 297 | 4.3 | 8.7 | 0.05 | 0.52 | 0.15 | 81 | 1014.4 |
| 20260506080503 | 55 | 269 | 1.7 | 5.2 | 0.03 | 0.50 | 0.13 | 81 | 1018.9 |
| 20260506073503 | 55 | 264 | 0.9 | 4.3 | 0.00 | 0.57 | 0.10 | 82 | 1018.7 |
| 20260506073002 | 55 | 200 | 0.0 | 2.6 | 0.00 | 0.57 | 0.10 | 82 | 1018.7 |
| 20260506072504 | 55 | 346 | 0.0 | 1.7 | 0.00 | 0.56 | 0.10 | 83 | 1014.2 |
| 20260506072502 | 55 | 346 | 0.0 | 1.7 | 0.00 | 0.57 | 0.10 | 83 | 1018.7 |
| 20260506072002 | 55 | 128 | 0.9 | 2.6 | 0.00 | 0.57 | 0.10 | 83 | 1018.7 |
| 20260506071502 | 55 | 108 | 0.0 | 2.6 | 0.00 | 0.56 | 0.10 | 83 | 1014.2 |
| 20260506071003 | 55 | 145 | 0.9 | 2.6 | 0.00 | 0.57 | 0.10 | 83 | 1018.7 |
| 20260506071000 | 55 | 145 | 0.0 | 2.6 | 0.00 | 0.56 | 0.10 | 83 | 1014.1 |
| 20260506070502 | 55 | 117 | 0.9 | 2.6 | 0.00 | 0.57 | 0.10 | 83 | 1018.5 |
| 20260506062501 | 54 | 122 | 0.9 | 2.6 | 0.02 | 0.72 | 0.10 | 87 | 1018.4 |
| 20260506062002 | 54 | 132 | 0.0 | 3.5 | 0.02 | 0.72 | 0.10 | 88 | 1013.9 |
| 20260506061503 | 53 | 71 | 1.7 | 4.3 | 0.02 | 0.72 | 0.10 | 87 | 1018.3 |
| 20260506061501 | 53 | 82 | 0.9 | 4.3 | 0.02 | 0.72 | 0.10 | 87 | 1013.8 |
| 20260506061002 | 53 | 68 | 1.7 | 4.3 | 0.04 | 0.72 | 0.10 | 88 | 1018.4 |
| 20260506060501 | 53 | 131 | 1.7 | 3.5 | 0.05 | 0.72 | 0.10 | 89 | 1018.4 |
| 20260506051103 | 53 | 97 | 0.0 | 1.7 | 0.06 | 0.69 | 0.06 | 86 | 1013.6 |
| 20260506051001 | 53 | 110 | 0.0 | 0.9 | 0.06 | 0.69 | 0.06 | 86 | 1018.2 |
| 20260506050501 | 53 | 110 | 0.0 | 1.7 | 0.05 | 0.69 | 0.06 | 85 | 1013.6 |
| 20260506045004 | 53 | 143 | 0.9 | 4.3 | 0.02 | 0.65 | 0.02 | 84 | 1018.0 |
| 20260506045002 | 53 | 143 | 0.0 | 4.3 | 0.02 | 0.65 | 0.02 | 84 | 1013.5 |
| 20260506044501 | 54 | 250 | 0.9 | 3.5 | 0.02 | 0.65 | 0.02 | 83 | 1013.5 |
| 20260506044002 | 54 | 261 | 1.7 | 4.3 | 0.01 | 0.65 | 0.02 | 83 | 1018.1 |
| 20260506043502 | 54 | 228 | 1.7 | 5.2 | 0.01 | 0.65 | 0.02 | 83 | 1018.1 |
| 20260506043003 | 54 | 237 | 2.6 | 7.8 | 0.00 | 0.64 | 0.01 | 83 | 1013.5 |
| 20260506042503 | 53 | 278 | 3.5 | 7.8 | 0.00 | 0.64 | 0.01 | 83 | 1013.5 |
| 20260506042100 | 53 | 293 | 0.9 | 3.5 | 0.00 | 0.64 | 0.01 | 84 | 1013.5 |
| 20260506042003 | 53 | 198 | 0.0 | 1.7 | 0.00 | 0.64 | 0.01 | 85 | 1018.1 |
| 20260506041502 | 53 | 91 | 0.0 | 0.9 | 0.00 | 0.64 | 0.01 | 84 | 1018.1 |
| 20260506041100 | 53 | 165 | 0.0 | 1.7 | 0.00 | 0.64 | 0.01 | 84 | 1013.5 |
| 20260506041002 | 53 | 165 | 0.0 | 1.7 | 0.01 | 0.64 | 0.01 | 84 | 1018.0 |
| 20260506041000 | 53 | 165 | 0.0 | 1.7 | 0.01 | 0.64 | 0.01 | 84 | 1013.5 |
| 20260506040501 | 53 | 78 | 0.0 | 2.6 | 0.01 | 0.64 | 0.01 | 84 | 1018.0 |
| 20260506040002 | 53 | 87 | 0.0 | 2.6 | 0.01 | 0.64 | 0.01 | 84 | 1013.5 |
| 20260506035501 | 53 | 66 | 0.9 | 1.7 | 0.01 | 0.65 | 0.01 | 84 | 1018.0 |
| 20260506035002 | 53 | 86 | 0.9 | 2.6 | 0.01 | 0.65 | 0.01 | 84 | 1018.1 |
| 20260506034606 | 53 | 77 | 0.0 | 2.6 | 0.01 | 0.65 | 0.01 | 85 | 1013.5 |
| 20260506034502 | 53 | 66 | 0.9 | 2.6 | 0.01 | 0.65 | 0.01 | 85 | 1018.1 |
| 20260506034002 | 52 | 87 | 0.9 | 2.6 | 0.01 | 0.65 | 0.01 | 85 | 1018.1 |
| 20260506033501 | 53 | 65 | 0.9 | 2.6 | 0.01 | 0.65 | 0.01 | 84 | 1013.6 |
| 20260506033100 | 53 | 66 | 0.0 | 6.1 | 0.01 | 0.65 | 0.01 | 84 | 1013.6 |
| 20260506033001 | 53 | 75 | 1.7 | 6.1 | 0.01 | 0.65 | 0.01 | 84 | 1018.2 |
| 20260506032604 | 53 | 98 | 1.7 | 6.1 | 0.01 | 0.65 | 0.01 | 84 | 1013.6 |
| 20260506032501 | 53 | 77 | 1.7 | 6.1 | 0.01 | 0.65 | 0.01 | 84 | 1018.1 |
| 20260506032100 | 53 | 100 | 0.0 | 4.3 | 0.01 | 0.65 | 0.01 | 84 | 1013.6 |
| 20260506032003 | 53 | 101 | 0.0 | 4.3 | 0.01 | 0.65 | 0.01 | 84 | 1013.6 |
| 20260506031600 | 53 | 72 | 0.0 | 4.3 | 0.01 | 0.65 | 0.01 | 84 | 1013.5 |
| 20260506031501 | 53 | 73 | 1.7 | 4.3 | 0.01 | 0.65 | 0.01 | 84 | 1018.1 |
| 20260506031101 | 53 | 84 | 2.6 | 4.3 | 0.00 | 0.64 | 0.00 | 83 | 1013.6 |
| 20260506031002 | 53 | 68 | 1.7 | 4.3 | 0.00 | 0.64 | 0.00 | 83 | 1018.1 |
| 20260506030602 | 53 | 58 | 1.7 | 3.5 | 0.00 | 0.64 | 0.00 | 83 | 1013.5 |
| 20260506030005 | 53 | 59 | 1.7 | 3.5 | 0.00 | 0.64 | 0.00 | 83 | 1018.1 |
| 20260506030002 | 53 | 59 | 1.7 | 3.5 | 0.00 | 0.64 | 0.00 | 83 | 1013.6 |
| 20260506025600 | 53 | 130 | 0.9 | 3.5 | 0.00 | 0.64 | 0.00 | 83 | 1013.5 |
| 20260506025501 | 53 | 70 | 1.7 | 4.3 | 0.00 | 0.64 | 0.00 | 83 | 1018.0 |
| 20260506025100 | 53 | 108 | 0.0 | 4.3 | 0.00 | 0.64 | 0.00 | 83 | 1013.5 |
| 20260506025001 | 53 | 124 | 1.7 | 4.3 | 0.00 | 0.64 | 0.00 | 83 | 1018.1 |
| 20260506024601 | 53 | 68 | 1.7 | 4.3 | 0.00 | 0.64 | 0.00 | 83 | 1013.6 |
| 20260506024503 | 53 | 102 | 0.9 | 4.3 | 0.00 | 0.64 | 0.00 | 83 | 1013.6 |
| 20260506024100 | 53 | 123 | 0.0 | 3.5 | 0.00 | 0.64 | 0.00 | 83 | 1013.6 |
| 20260506024002 | 53 | 127 | 1.7 | 3.5 | 0.00 | 0.64 | 0.00 | 83 | 1018.1 |
| 20260506023601 | 53 | 86 | 1.7 | 3.5 | 0.00 | 0.64 | 0.00 | 83 | 1013.6 |
| 20260506023501 | 53 | 74 | 1.7 | 3.5 | 0.00 | 0.64 | 0.00 | 83 | 1018.1 |
| 20260506023103 | 53 | 74 | 0.9 | 4.3 | 0.00 | 0.64 | 0.00 | 84 | 1013.6 |
| 20260506023001 | 53 | 66 | 1.7 | 4.3 | 0.00 | 0.64 | 0.00 | 84 | 1018.2 |
| 20260506022600 | 53 | 117 | 1.7 | 4.3 | 0.00 | 0.64 | 0.00 | 83 | 1013.6 |
| 20260506022503 | 52 | 87 | 2.6 | 4.3 | 0.00 | 0.64 | 0.00 | 83 | 1018.2 |
| 20260506022100 | 53 | 75 | 1.7 | 3.5 | 0.00 | 0.64 | 0.00 | 83 | 1013.7 |
| 20260506022001 | 53 | 89 | 1.7 | 3.5 | 0.00 | 0.64 | 0.00 | 84 | 1018.2 |
| 20260506021607 | 53 | 128 | 0.9 | 3.5 | 0.00 | 0.64 | 0.00 | 84 | 1013.7 |
| 20260506021503 | 53 | 109 | 1.7 | 3.5 | 0.00 | 0.64 | 0.00 | 83 | 1018.2 |
| 20260506021100 | 53 | 86 | 0.9 | 3.5 | 0.00 | 0.64 | 0.00 | 83 | 1013.6 |
| 20260506021002 | 53 | 65 | 0.9 | 3.5 | 0.00 | 0.64 | 0.00 | 83 | 1018.1 |
| 20260506020600 | 53 | 115 | 0.9 | 3.5 | 0.00 | 0.64 | 0.00 | 83 | 1013.6 |
| 20260506020005 | 53 | 108 | 0.0 | 5.2 | 0.00 | 0.64 | 0.00 | 83 | 1013.7 |
| 20260506015604 | 53 | 76 | 0.9 | 5.2 | 0.00 | 0.65 | 0.00 | 83 | 1013.6 |
| 20260506015502 | 53 | 79 | 0.9 | 5.2 | 0.00 | 0.65 | 0.00 | 83 | 1018.2 |
| 20260506015100 | 53 | 83 | 1.7 | 4.3 | 0.00 | 0.65 | 0.00 | 84 | 1013.7 |
| 20260506015001 | 53 | 95 | 1.7 | 4.3 | 0.00 | 0.65 | 0.00 | 83 | 1018.2 |
| 20260506014600 | 53 | 115 | 0.9 | 4.3 | 0.00 | 0.65 | 0.00 | 84 | 1013.8 |
| 20260506014501 | 52 | 136 | 1.7 | 4.3 | 0.00 | 0.65 | 0.00 | 84 | 1018.2 |
| 20260506014103 | 52 | 110 | 0.9 | 4.3 | 0.00 | 0.65 | 0.00 | 84 | 1013.7 |
| 20260506014001 | 52 | 69 | 1.7 | 4.3 | 0.00 | 0.65 | 0.00 | 85 | 1018.3 |
| 20260506013600 | 52 | 78 | 0.9 | 5.2 | 0.00 | 0.65 | 0.00 | 85 | 1013.7 |
| 20260506013502 | 52 | 68 | 1.7 | 5.2 | 0.00 | 0.65 | 0.00 | 85 | 1018.2 |
| 20260506013107 | 52 | 97 | 1.7 | 5.2 | 0.00 | 0.65 | 0.00 | 86 | 1013.7 |
| 20260506013001 | 52 | 86 | 2.6 | 5.2 | 0.00 | 0.65 | 0.00 | 86 | 1018.3 |
| 20260506012600 | 52 | 92 | 1.7 | 5.2 | 0.00 | 0.65 | 0.00 | 86 | 1013.7 |
| 20260506012501 | 52 | 98 | 2.6 | 5.2 | 0.00 | 0.65 | 0.00 | 86 | 1018.3 |
| 20260506012100 | 52 | 91 | 2.6 | 4.3 | 0.00 | 0.65 | 0.00 | 86 | 1013.9 |
| 20260506012001 | 52 | 75 | 1.7 | 4.3 | 0.00 | 0.65 | 0.00 | 86 | 1018.4 |
| 20260506011608 | 52 | 49 | 1.7 | 3.5 | 0.00 | 0.65 | 0.00 | 85 | 1013.8 |
| 20260506011103 | 52 | 72 | 0.9 | 2.6 | 0.00 | 0.65 | 0.00 | 85 | 1013.9 |
| 20260506011003 | 53 | 82 | 0.9 | 2.6 | 0.00 | 0.65 | 0.00 | 85 | 1018.5 |
| 20260506010600 | 53 | 79 | 0.9 | 2.6 | 0.00 | 0.65 | 0.00 | 84 | 1013.9 |
| 20260506010500 | 53 | 87 | 0.9 | 2.6 | 0.00 | 0.65 | 0.00 | 84 | 1018.5 |
| 20260506010100 | 53 | 115 | 0.9 | 2.6 | 0.00 | 0.65 | 0.00 | 84 | 1014.0 |
| 20260506010004 | 53 | 68 | 0.9 | 2.6 | 0.00 | 0.65 | 0.00 | 84 | 1018.5 |
| 20260506010002 | 53 | 68 | 0.0 | 2.6 | 0.00 | 0.65 | 0.00 | 84 | 1014.0 |
| 20260506005559 | 52 | 77 | 0.9 | 2.6 | 0.00 | 0.65 | 0.00 | 85 | 1014.0 |
| 20260506005501 | 52 | 99 | 0.9 | 2.6 | 0.00 | 0.65 | 0.00 | 84 | 1018.5 |
| 20260506005100 | 52 | 104 | 0.9 | 1.7 | 0.00 | 0.65 | 0.00 | 85 | 1014.1 |
| 20260506005003 | 52 | 68 | 0.9 | 1.7 | 0.00 | 0.65 | 0.00 | 85 | 1018.6 |
| 20260506004603 | 52 | 77 | 0.0 | 2.6 | 0.00 | 0.65 | 0.00 | 85 | 1014.1 |
| 20260506004501 | 52 | 76 | 0.9 | 2.6 | 0.00 | 0.65 | 0.00 | 85 | 1018.7 |
| 20260506004100 | 52 | 90 | 0.9 | 2.6 | 0.00 | 0.65 | 0.00 | 85 | 1014.2 |
| 20260506004001 | 52 | 78 | 0.9 | 2.6 | 0.00 | 0.65 | 0.00 | 85 | 1018.8 |
| 20260506003604 | 52 | 72 | 0.9 | 2.6 | 0.00 | 0.65 | 0.00 | 85 | 1014.3 |
| 20260506003501 | 52 | 75 | 0.9 | 2.6 | 0.00 | 0.65 | 0.00 | 85 | 1018.8 |
| 20260506003100 | 52 | 96 | 0.9 | 3.5 | 0.00 | 0.65 | 0.00 | 85 | 1014.3 |
| 20260506003003 | 52 | 81 | 0.9 | 3.5 | 0.00 | 0.65 | 0.00 | 85 | 1018.9 |
| 20260506002600 | 52 | 100 | 0.9 | 3.5 | 0.00 | 0.65 | 0.00 | 85 | 1014.4 |
| 20260506002501 | 52 | 84 | 1.7 | 4.3 | 0.00 | 0.65 | 0.00 | 85 | 1018.9 |
| 20260506002100 | 52 | 71 | 0.9 | 4.3 | 0.00 | 0.65 | 0.00 | 85 | 1014.4 |
| 20260506002002 | 52 | 119 | 1.7 | 4.3 | 0.00 | 0.65 | 0.00 | 85 | 1018.9 |
| 20260506001603 | 52 | 72 | 0.9 | 5.2 | 0.00 | 0.65 | 0.00 | 85 | 1014.4 |
| 20260506001501 | 52 | 99 | 2.6 | 5.2 | 0.00 | 0.65 | 0.00 | 85 | 1019.0 |
| 20260506001100 | 52 | 116 | 2.6 | 5.2 | 0.00 | 0.65 | 0.00 | 85 | 1014.4 |
| 20260506001001 | 52 | 53 | 2.6 | 5.2 | 0.00 | 0.65 | 0.00 | 85 | 1019.0 |
| 20260506000600 | 52 | 62 | 2.6 | 6.1 | 0.00 | 0.65 | 0.00 | 86 | 1014.4 |
| 20260506000501 | 52 | 68 | 2.6 | 6.1 | 0.00 | 0.65 | 0.00 | 86 | 1018.9 |
| 20260506000100 | 52 | 74 | 2.6 | 6.1 | 0.00 | 0.65 | 0.00 | 86 | 1014.4 |
| 20260506000005 | 52 | 65 | 2.6 | 5.2 | 0.00 | 0.65 | 0.00 | 86 | 1018.9 |
| 20260506000002 | 52 | 65 | 1.7 | 5.2 | 0.00 | 0.65 | 0.00 | 86 | 1014.4 |
| 20260505235600 | 52 | 88 | 2.6 | 4.3 | 0.00 | 0.66 | 0.00 | 86 | 1014.3 |
| 20260505235503 | 52 | 75 | 1.7 | 4.3 | 0.00 | 0.66 | 0.00 | 86 | 1018.8 |
| 20260505235100 | 52 | 77 | 1.7 | 3.5 | 0.00 | 0.66 | 0.00 | 86 | 1014.4 |
| 20260505235001 | 52 | 82 | 1.7 | 3.5 | 0.00 | 0.66 | 0.00 | 86 | 1018.9 |
| 20260505234609 | 52 | 89 | 1.7 | 3.5 | 0.00 | 0.66 | 0.00 | 86 | 1014.5 |
| 20260505234100 | 52 | 70 | 0.9 | 3.5 | 0.00 | 0.66 | 0.00 | 86 | 1014.5 |
| 20260505234001 | 52 | 77 | 1.7 | 3.5 | 0.00 | 0.66 | 0.00 | 86 | 1019.1 |
| 20260505233600 | 52 | 63 | 0.9 | 3.5 | 0.00 | 0.66 | 0.00 | 86 | 1014.6 |
| 20260505233100 | 52 | 76 | 0.9 | 2.6 | 0.00 | 0.66 | 0.00 | 86 | 1014.6 |
| 20260505233002 | 52 | 69 | 0.9 | 2.6 | 0.00 | 0.66 | 0.00 | 86 | 1019.2 |
| 20260505232600 | 52 | 124 | 0.9 | 3.5 | 0.00 | 0.66 | 0.00 | 86 | 1014.6 |
| 20260505232503 | 53 | 74 | 0.9 | 3.5 | 0.00 | 0.66 | 0.00 | 86 | 1019.1 |
| 20260505232100 | 53 | 113 | 0.0 | 3.5 | 0.00 | 0.66 | 0.00 | 86 | 1014.5 |
| 20260505232002 | 53 | 115 | 1.7 | 3.5 | 0.00 | 0.66 | 0.00 | 85 | 1019.1 |
| 20260505231608 | 53 | 106 | 0.9 | 2.6 | 0.00 | 0.66 | 0.00 | 85 | 1014.5 |
| 20260505231503 | 53 | 116 | 1.7 | 2.6 | 0.00 | 0.66 | 0.00 | 84 | 1019.0 |
| 20260505231100 | 53 | 87 | 0.9 | 2.6 | 0.00 | 0.66 | 0.00 | 84 | 1014.5 |
| 20260505231001 | 53 | 99 | 0.9 | 1.7 | 0.00 | 0.66 | 0.00 | 84 | 1019.0 |
| 20260505230603 | 53 | 90 | 0.9 | 2.6 | 0.00 | 0.66 | 0.00 | 83 | 1014.5 |
| 20260505230100 | 53 | 62 | 0.9 | 2.6 | 0.00 | 0.66 | 0.00 | 84 | 1014.4 |
| 20260505230004 | 53 | 92 | 0.9 | 2.6 | 0.00 | 0.66 | 0.00 | 84 | 1019.0 |
| 20260505225601 | 53 | 113 | 0.0 | 2.6 | 0.00 | 0.76 | 0.00 | 83 | 1014.5 |
| 20260505225502 | 53 | 120 | 0.9 | 2.6 | 0.00 | 0.76 | 0.00 | 83 | 1019.0 |
| 20260505225100 | 53 | 126 | 0.9 | 2.6 | 0.00 | 0.76 | 0.00 | 84 | 1014.5 |
| 20260505225001 | 53 | 81 | 0.9 | 2.6 | 0.00 | 0.76 | 0.00 | 84 | 1019.0 |
| 20260505224600 | 53 | 112 | 0.9 | 2.6 | 0.00 | 0.76 | 0.00 | 84 | 1014.5 |
| 20260505224501 | 53 | 91 | 0.9 | 2.6 | 0.00 | 0.76 | 0.00 | 84 | 1019.0 |
| 20260505224100 | 53 | 69 | 0.9 | 2.6 | 0.00 | 0.76 | 0.00 | 84 | 1014.6 |
| 20260505224001 | 53 | 79 | 0.9 | 2.6 | 0.00 | 0.76 | 0.00 | 84 | 1019.1 |
| 20260505223601 | 53 | 100 | 0.0 | 2.6 | 0.00 | 0.76 | 0.00 | 84 | 1014.6 |
| 20260505223107 | 53 | 76 | 0.0 | 1.7 | 0.00 | 0.76 | 0.00 | 84 | 1014.6 |
| 20260505223001 | 53 | 99 | 0.0 | 1.7 | 0.00 | 0.76 | 0.00 | 84 | 1019.1 |
| 20260505222602 | 53 | 189 | 0.0 | 1.7 | 0.00 | 0.76 | 0.00 | 84 | 1014.6 |
| 20260505222501 | 53 | 215 | 0.0 | 1.7 | 0.00 | 0.76 | 0.00 | 84 | 1019.1 |
| 20260505222103 | 53 | 157 | 0.0 | 1.7 | 0.00 | 0.76 | 0.00 | 84 | 1014.6 |
| 20260505222001 | 53 | 169 | 0.9 | 2.6 | 0.00 | 0.76 | 0.00 | 84 | 1019.1 |
| 20260505221602 | 53 | 205 | 0.0 | 2.6 | 0.00 | 0.76 | 0.00 | 83 | 1014.6 |
| 20260505221501 | 53 | 144 | 0.0 | 2.6 | 0.00 | 0.76 | 0.00 | 83 | 1019.2 |
| 20260505221059 | 53 | 194 | 0.0 | 1.7 | 0.00 | 0.76 | 0.00 | 83 | 1014.7 |
| 20260505221003 | 53 | 257 | 0.0 | 2.6 | 0.00 | 0.76 | 0.00 | 84 | 1019.3 |
| 20260505220600 | 53 | 125 | 0.0 | 2.6 | 0.00 | 0.76 | 0.00 | 83 | 1014.7 |
| 20260505220100 | 53 | 340 | 0.0 | 0.9 | 0.00 | 0.76 | 0.00 | 83 | 1014.8 |
| 20260505220006 | 53 | 340 | 0.0 | 0.9 | 0.00 | 0.76 | 0.00 | 83 | 1019.4 |
| 20260505220004 | 53 | 340 | 0.0 | 0.9 | 0.00 | 0.76 | 0.00 | 83 | 1014.8 |
| 20260505215600 | 53 | 262 | 0.0 | 2.6 | 0.00 | 0.76 | 0.76 | 83 | 1014.8 |
| 20260505215501 | 53 | 262 | 0.9 | 2.6 | 0.00 | 0.76 | 0.76 | 83 | 1019.4 |
| 20260505215102 | 53 | 221 | 0.9 | 2.6 | 0.00 | 0.76 | 0.76 | 83 | 1014.8 |
| 20260505215002 | 53 | 162 | 0.9 | 2.6 | 0.00 | 0.76 | 0.76 | 83 | 1019.4 |
| 20260505214621 | 53 | 136 | 0.0 | 2.6 | 0.00 | 0.76 | 0.76 | 83 | 1014.8 |
| 20260505214500 | 53 | 216 | 0.9 | 2.6 | 0.00 | 0.76 | 0.76 | 83 | 1019.4 |
| 20260505214100 | 53 | 227 | 0.0 | 3.5 | 0.00 | 0.76 | 0.76 | 83 | 1014.8 |
| 20260505213603 | 53 | 91 | 0.9 | 3.5 | 0.00 | 0.76 | 0.76 | 83 | 1014.8 |
| 20260505213501 | 53 | 207 | 0.9 | 3.5 | 0.00 | 0.76 | 0.76 | 83 | 1019.4 |
| 20260505213105 | 53 | 129 | 0.0 | 2.6 | 0.00 | 0.76 | 0.76 | 83 | 1014.9 |
| 20260505213003 | 53 | 153 | 0.9 | 2.6 | 0.00 | 0.76 | 0.76 | 83 | 1019.5 |
| 20260505212601 | 53 | 110 | 0.0 | 2.6 | 0.00 | 0.76 | 0.76 | 83 | 1014.9 |
| 20260505212501 | 53 | 221 | 0.9 | 2.6 | 0.00 | 0.76 | 0.76 | 83 | 1019.4 |
| 20260505212100 | 53 | 70 | 0.0 | 2.6 | 0.00 | 0.76 | 0.76 | 84 | 1014.9 |
| 20260505212003 | 53 | 103 | 0.9 | 2.6 | 0.00 | 0.76 | 0.76 | 84 | 1019.5 |
| 20260505211608 | 53 | 101 | 0.9 | 2.6 | 0.00 | 0.76 | 0.76 | 84 | 1014.9 |
| 20260505211501 | 53 | 117 | 0.9 | 4.3 | 0.00 | 0.76 | 0.76 | 83 | 1019.5 |
| 20260505211100 | 53 | 132 | 0.0 | 4.3 | 0.00 | 0.76 | 0.76 | 84 | 1014.9 |
| 20260505211001 | 53 | 94 | 0.9 | 4.3 | 0.00 | 0.76 | 0.76 | 84 | 1019.5 |
| 20260505210559 | 53 | 63 | 0.9 | 3.5 | 0.00 | 0.76 | 0.76 | 84 | 1015.0 |
| 20260505210500 | 53 | 58 | 0.9 | 3.5 | 0.00 | 0.76 | 0.76 | 84 | 1019.5 |
| 20260505210100 | 53 | 115 | 0.0 | 3.5 | 0.00 | 0.76 | 0.76 | 84 | 1015.0 |
| 20260505210002 | 53 | 121 | 0.9 | 3.5 | 0.00 | 0.76 | 0.76 | 84 | 1015.0 |
| 20260505205600 | 53 | 76 | 0.9 | 2.6 | 0.00 | 0.89 | 0.76 | 84 | 1015.0 |
| 20260505205501 | 53 | 91 | 0.9 | 2.6 | 0.00 | 0.89 | 0.76 | 84 | 1019.5 |
| 20260505205100 | 53 | 113 | 0.9 | 2.6 | 0.00 | 0.89 | 0.76 | 85 | 1014.9 |
| 20260505204600 | 53 | 183 | 0.0 | 2.6 | 0.00 | 0.89 | 0.76 | 85 | 1014.9 |
| 20260505204502 | 53 | 115 | 0.9 | 2.6 | 0.00 | 0.89 | 0.76 | 84 | 1019.5 |
| 20260505204100 | 53 | 70 | 0.0 | 2.6 | 0.00 | 0.89 | 0.76 | 85 | 1014.9 |
| 20260505203601 | 53 | 105 | 0.0 | 2.6 | 0.00 | 0.89 | 0.76 | 84 | 1014.8 |
| 20260505203100 | 53 | 94 | 0.0 | 4.3 | 0.01 | 0.89 | 0.76 | 84 | 1014.8 |
| 20260505202604 | 54 | 120 | 0.9 | 4.3 | 0.01 | 0.89 | 0.76 | 84 | 1014.8 |
| 20260505202059 | 54 | 154 | 0.0 | 1.7 | 0.01 | 0.89 | 0.76 | 83 | 1014.8 |
| 20260505202001 | 54 | 189 | 0.0 | 1.7 | 0.01 | 0.89 | 0.76 | 83 | 1019.4 |
| 20260505201600 | 54 | 111 | 0.0 | 1.7 | 0.01 | 0.89 | 0.76 | 83 | 1014.8 |
| 20260505201501 | 54 | 110 | 0.0 | 1.7 | 0.01 | 0.89 | 0.76 | 83 | 1019.3 |
| 20260505201100 | 54 | 135 | 0.0 | 1.7 | 0.01 | 0.89 | 0.76 | 82 | 1014.6 |
| 20260505200600 | 54 | 127 | 0.0 | 3.5 | 0.01 | 0.89 | 0.76 | 82 | 1014.7 |
| 20260505200501 | 54 | 131 | 0.9 | 4.3 | 0.01 | 0.89 | 0.76 | 82 | 1019.2 |
| 20260505200107 | 54 | 266 | 0.0 | 6.1 | 0.01 | 0.89 | 0.76 | 82 | 1014.6 |
| 20260505200005 | 54 | 266 | 1.7 | 6.1 | 0.01 | 0.89 | 0.76 | 81 | 1019.2 |
| 20260505200002 | 54 | 266 | 0.9 | 6.1 | 0.01 | 0.89 | 0.76 | 81 | 1014.6 |
| 20260505195603 | 54 | 231 | 1.7 | 6.1 | 0.01 | 0.94 | 0.76 | 81 | 1014.7 |
| 20260505195501 | 54 | 251 | 0.9 | 6.1 | 0.01 | 0.94 | 0.76 | 81 | 1019.2 |
| 20260505195100 | 54 | 247 | 0.9 | 5.2 | 0.01 | 0.94 | 0.76 | 81 | 1014.6 |
| 20260505195005 | 54 | 163 | 1.7 | 5.2 | 0.01 | 0.94 | 0.76 | 81 | 1019.1 |
| 20260505194600 | 54 | 288 | 1.7 | 5.2 | 0.01 | 0.94 | 0.76 | 81 | 1014.6 |
| 20260505194501 | 54 | 261 | 1.7 | 5.2 | 0.01 | 0.94 | 0.76 | 81 | 1019.2 |
| 20260505194100 | 54 | 262 | 0.0 | 5.2 | 0.01 | 0.94 | 0.76 | 82 | 1014.6 |
| 20260505194001 | 54 | 262 | 1.7 | 5.2 | 0.01 | 0.94 | 0.76 | 82 | 1019.1 |
| 20260505193603 | 55 | 281 | 2.6 | 6.1 | 0.01 | 0.94 | 0.76 | 82 | 1014.5 |
| 20260505193501 | 55 | 274 | 2.6 | 6.1 | 0.01 | 0.94 | 0.76 | 82 | 1019.0 |
| 20260505193101 | 55 | 276 | 1.7 | 6.1 | 0.02 | 0.93 | 0.75 | 82 | 1014.6 |
| 20260505193004 | 55 | 284 | 2.6 | 6.1 | 0.02 | 0.93 | 0.75 | 82 | 1019.1 |
| 20260505192600 | 55 | 289 | 1.7 | 10.4 | 0.05 | 0.93 | 0.75 | 81 | 1014.5 |
| 20260505192501 | 55 | 255 | 3.5 | 10.4 | 0.05 | 0.93 | 0.75 | 81 | 1019.0 |
| 20260505192100 | 55 | 243 | 3.5 | 13.0 | 0.05 | 0.93 | 0.75 | 81 | 1014.5 |
| 20260505191600 | 55 | 245 | 4.3 | 13.0 | 0.05 | 0.93 | 0.75 | 81 | 1014.4 |
| 20260505191503 | 55 | 319 | 6.1 | 13.0 | 0.05 | 0.93 | 0.75 | 81 | 1019.0 |
| 20260505191100 | 55 | 269 | 4.3 | 13.0 | 0.05 | 0.93 | 0.75 | 82 | 1014.3 |
| 20260505191001 | 55 | 276 | 5.2 | 13.0 | 0.05 | 0.93 | 0.75 | 82 | 1018.9 |
| 20260505190559 | 55 | 240 | 4.3 | 9.6 | 0.05 | 0.93 | 0.75 | 83 | 1014.3 |
| 20260505190501 | 55 | 264 | 3.5 | 9.6 | 0.05 | 0.93 | 0.75 | 83 | 1018.8 |
| 20260505190100 | 55 | 266 | 1.7 | 7.8 | 0.05 | 0.93 | 0.75 | 85 | 1014.3 |
| 20260505190005 | 55 | 261 | 3.5 | 7.8 | 0.05 | 0.93 | 0.75 | 85 | 1018.8 |
| 20260505190003 | 55 | 261 | 2.6 | 7.8 | 0.05 | 0.93 | 0.75 | 85 | 1014.3 |
| 20260505185600 | 55 | 260 | 2.6 | 8.7 | 0.05 | 0.93 | 0.75 | 85 | 1014.3 |
| 20260505185501 | 55 | 259 | 3.5 | 8.7 | 0.05 | 0.93 | 0.75 | 85 | 1018.9 |
| 20260505185100 | 55 | 257 | 2.6 | 9.6 | 0.05 | 0.93 | 0.75 | 85 | 1014.3 |
| 20260505185003 | 55 | 225 | 3.5 | 9.6 | 0.05 | 0.93 | 0.75 | 85 | 1014.3 |
| 20260505184600 | 55 | 256 | 4.3 | 9.6 | 0.05 | 0.93 | 0.75 | 85 | 1014.3 |
| 20260505184100 | 55 | 268 | 1.7 | 5.2 | 0.05 | 0.93 | 0.75 | 86 | 1014.2 |
| 20260505184002 | 55 | 261 | 0.9 | 3.5 | 0.05 | 0.93 | 0.75 | 86 | 1018.7 |
| 20260505183559 | 55 | 97 | 0.9 | 5.2 | 0.05 | 0.93 | 0.75 | 85 | 1014.2 |
| 20260505183501 | 56 | 316 | 1.7 | 5.2 | 0.05 | 0.93 | 0.75 | 85 | 1018.7 |
| 20260505183107 | 56 | 274 | 0.9 | 5.2 | 0.03 | 0.91 | 0.73 | 84 | 1014.2 |
| 20260505183001 | 56 | 283 | 2.6 | 5.2 | 0.02 | 0.90 | 0.72 | 83 | 1018.7 |
| 20260505182601 | 56 | 291 | 1.7 | 4.3 | 0.00 | 0.88 | 0.70 | 83 | 1014.1 |
| 20260505182501 | 56 | 282 | 1.7 | 4.3 | 0.00 | 0.88 | 0.70 | 83 | 1018.6 |
| 20260505182102 | 56 | 277 | 1.7 | 4.3 | 0.00 | 0.88 | 0.70 | 82 | 1014.0 |
| 20260505181600 | 56 | 272 | 0.9 | 4.3 | 0.00 | 0.88 | 0.70 | 83 | 1014.0 |
| 20260505181501 | 56 | 266 | 2.6 | 5.2 | 0.00 | 0.88 | 0.70 | 84 | 1018.4 |
| 20260505181100 | 57 | 292 | 1.7 | 7.0 | 0.00 | 0.88 | 0.70 | 83 | 1014.0 |
| 20260505181001 | 57 | 266 | 2.6 | 7.0 | 0.00 | 0.88 | 0.70 | 83 | 1018.5 |
| 20260505180559 | 57 | 293 | 2.6 | 7.0 | 0.00 | 0.88 | 0.70 | 82 | 1014.0 |
| 20260505180501 | 57 | 209 | 1.7 | 7.0 | 0.00 | 0.88 | 0.70 | 83 | 1018.5 |
| 20260505180105 | 57 | 254 | 0.9 | 7.0 | 0.00 | 0.88 | 0.70 | 84 | 1013.9 |
| 20260505180005 | 57 | 153 | 2.6 | 7.0 | 0.00 | 0.88 | 0.70 | 84 | 1018.4 |
| 20260505180003 | 57 | 153 | 1.7 | 7.0 | 0.00 | 0.88 | 0.70 | 84 | 1013.9 |
| 20260505175600 | 57 | 274 | 1.7 | 6.1 | 0.00 | 0.88 | 0.70 | 84 | 1014.0 |
| 20260505175501 | 57 | 268 | 3.5 | 6.1 | 0.00 | 0.88 | 0.70 | 84 | 1018.4 |
| 20260505175100 | 57 | 274 | 2.6 | 6.1 | 0.00 | 0.88 | 0.70 | 83 | 1014.0 |
| 20260505175001 | 57 | 262 | 2.6 | 7.0 | 0.00 | 0.88 | 0.70 | 83 | 1018.5 |
| 20260505174605 | 57 | 280 | 2.6 | 7.8 | 0.00 | 0.88 | 0.70 | 84 | 1014.0 |
| 20260505174501 | 57 | 243 | 3.5 | 8.7 | 0.00 | 0.88 | 0.70 | 84 | 1018.5 |
| 20260505174059 | 57 | 307 | 1.7 | 8.7 | 0.00 | 0.88 | 0.70 | 84 | 1014.0 |
| 20260505174002 | 57 | 284 | 5.2 | 8.7 | 0.00 | 0.88 | 0.70 | 84 | 1018.6 |
| 20260505173600 | 57 | 240 | 5.2 | 8.7 | 0.00 | 0.88 | 0.70 | 84 | 1014.0 |
| 20260505173501 | 57 | 262 | 4.3 | 8.7 | 0.00 | 0.88 | 0.70 | 85 | 1018.5 |
| 20260505173100 | 56 | 260 | 3.5 | 7.8 | 0.00 | 0.88 | 0.70 | 87 | 1014.1 |
| 20260505173001 | 56 | 234 | 3.5 | 7.8 | 0.00 | 0.88 | 0.70 | 88 | 1018.6 |
| 20260505172600 | 55 | 272 | 3.5 | 8.7 | 0.00 | 0.88 | 0.70 | 91 | 1014.1 |
| 20260505172503 | 55 | 307 | 4.3 | 8.7 | 0.00 | 0.88 | 0.70 | 92 | 1018.6 |
| 20260505172103 | 55 | 238 | 4.3 | 8.7 | 0.00 | 0.88 | 0.70 | 92 | 1014.1 |
| 20260505172001 | 55 | 285 | 3.5 | 8.7 | 0.00 | 0.88 | 0.70 | 93 | 1018.6 |
| 20260505171600 | 55 | 286 | 1.7 | 7.0 | 0.00 | 0.88 | 0.70 | 94 | 1014.1 |
| 20260505171102 | 55 | 212 | 1.7 | 7.0 | 0.00 | 0.88 | 0.70 | 95 | 1014.2 |
| 20260505171002 | 55 | 266 | 3.5 | 7.0 | 0.00 | 0.88 | 0.70 | 94 | 1018.7 |
| 20260505170600 | 55 | 272 | 3.5 | 8.7 | 0.00 | 0.88 | 0.70 | 93 | 1014.2 |
| 20260505170501 | 55 | 295 | 2.6 | 8.7 | 0.00 | 0.88 | 0.70 | 94 | 1018.7 |
| 20260505170100 | 55 | 306 | 3.5 | 8.7 | 0.00 | 0.88 | 0.70 | 94 | 1014.2 |
| 20260505170005 | 55 | 292 | 2.6 | 8.7 | 0.00 | 0.88 | 0.70 | 93 | 1018.7 |
| 20260505170002 | 55 | 292 | 3.5 | 8.7 | 0.00 | 0.88 | 0.70 | 93 | 1014.2 |
| 20260505165600 | 55 | 224 | 1.7 | 7.0 | 0.00 | 0.88 | 0.70 | 94 | 1014.2 |
| 20260505165502 | 54 | 256 | 2.6 | 7.0 | 0.00 | 0.88 | 0.70 | 94 | 1018.8 |
| 20260505165101 | 54 | 255 | 1.7 | 6.1 | 0.00 | 0.88 | 0.70 | 93 | 1014.2 |
| 20260505165001 | 55 | 290 | 2.6 | 5.2 | 0.00 | 0.88 | 0.70 | 94 | 1018.7 |
| 20260505164606 | 55 | 293 | 2.6 | 4.3 | 0.01 | 0.88 | 0.70 | 93 | 1014.2 |
| 20260505164100 | 55 | 262 | 0.9 | 5.2 | 0.02 | 0.88 | 0.70 | 94 | 1014.2 |
| 20260505164001 | 55 | 193 | 1.7 | 5.2 | 0.02 | 0.88 | 0.70 | 94 | 1018.8 |
| 20260505163600 | 55 | 205 | 0.0 | 3.5 | 0.02 | 0.88 | 0.70 | 96 | 1014.3 |
| 20260505163502 | 55 | 249 | 1.7 | 4.3 | 0.02 | 0.88 | 0.70 | 96 | 1018.8 |
| 20260505163100 | 54 | 241 | 0.9 | 4.3 | 0.02 | 0.88 | 0.70 | 95 | 1014.2 |
| 20260505163002 | 54 | 248 | 1.7 | 4.3 | 0.02 | 0.88 | 0.70 | 95 | 1018.8 |
| 20260505162600 | 54 | 264 | 1.7 | 3.5 | 0.02 | 0.88 | 0.70 | 95 | 1014.3 |
| 20260505162501 | 54 | 231 | 1.7 | 3.5 | 0.02 | 0.88 | 0.70 | 95 | 1018.8 |
| 20260505162100 | 54 | 168 | 1.7 | 3.5 | 0.02 | 0.88 | 0.70 | 95 | 1014.3 |
| 20260505162001 | 54 | 228 | 1.7 | 4.3 | 0.02 | 0.88 | 0.70 | 95 | 1018.9 |
| 20260505161607 | 53 | 212 | 0.0 | 4.3 | 0.02 | 0.88 | 0.70 | 95 | 1014.4 |
| 20260505161501 | 53 | 222 | 1.7 | 4.3 | 0.02 | 0.88 | 0.70 | 94 | 1018.9 |
| 20260505161100 | 54 | 247 | 1.7 | 4.3 | 0.02 | 0.88 | 0.70 | 95 | 1014.3 |
| 20260505161002 | 54 | 241 | 0.9 | 4.3 | 0.02 | 0.88 | 0.70 | 95 | 1018.8 |
| 20260505160602 | 54 | 129 | 0.9 | 2.6 | 0.02 | 0.88 | 0.70 | 95 | 1014.3 |
| 20260505160501 | 54 | 241 | 0.9 | 2.6 | 0.02 | 0.88 | 0.70 | 95 | 1018.9 |
| 20260505153108 | 52 | 285 | 1.7 | 10.4 | 0.06 | 0.87 | 0.69 | 94 | 1014.4 |
| 20260505153003 | 52 | 283 | 4.3 | 10.4 | 0.06 | 0.87 | 0.69 | 94 | 1019.0 |
| 20260505152600 | 52 | 293 | 4.3 | 10.4 | 0.06 | 0.87 | 0.69 | 93 | 1014.5 |
| 20260505152501 | 52 | 281 | 3.5 | 7.8 | 0.06 | 0.87 | 0.69 | 93 | 1019.0 |
| 20260505152059 | 53 | 245 | 4.3 | 7.8 | 0.06 | 0.87 | 0.69 | 93 | 1014.5 |
| 20260505152003 | 53 | 257 | 2.6 | 7.8 | 0.06 | 0.87 | 0.69 | 93 | 1019.0 |
| 20260505151610 | 54 | 277 | 2.6 | 7.0 | 0.09 | 0.87 | 0.69 | 94 | 1014.5 |
| 20260505151501 | 54 | 276 | 2.6 | 6.1 | 0.12 | 0.87 | 0.69 | 95 | 1019.0 |
| 20260505151100 | 53 | 259 | 1.7 | 6.1 | 0.12 | 0.87 | 0.69 | 94 | 1014.6 |
| 20260505151001 | 53 | 308 | 3.5 | 6.1 | 0.13 | 0.87 | 0.69 | 95 | 1019.0 |
| 20260505150600 | 53 | 271 | 2.6 | 7.0 | 0.13 | 0.87 | 0.69 | 94 | 1014.5 |
| 20260505140600 | 54 | 170 | 0.9 | 3.5 | 0.06 | 0.74 | 0.56 | 93 | 1014.4 |
| 20260505140502 | 54 | 132 | 1.7 | 3.5 | 0.06 | 0.74 | 0.56 | 93 | 1019.0 |
| 20260505140114 | 54 | 155 | 0.9 | 4.3 | 0.07 | 0.74 | 0.56 | 93 | 1014.5 |